Temp
-5 -5 -3 -4 -4 -4 -4 -5 -4 -4 -4 -5 -5 -5 -6 -7 -7 -6 -6 -6 -6 -7 -7 -8 -6 -6 -6 -6 -7 -7 -6 -6 -6 -5 -5 -5 -5 -5 -5 -4 -5 -6 -4 -4
-4 -2 -1 -3 -4 -3 -4 -4 -4 -4 -4 -4 -4 -5 -6 -7 -7 -7 -7 -7 -7 -7 -7 -7 -6 -6 -6 -6 -6 -6 -6 -6 -5 -5 -5 -5 -5 -5 -4 -4 -4 -6 -6 -4
-3 -3 -3 -3 -4 -3 -4 -4 -4 -4 -4 -4 -4 -5 -5 -6 -7 -7 -7 -6 -7 -7 -7 -7 -6 -5 -6 -6 -6 -6 -6 -6 -6 -7 -7 -6 -5 -5 -4 -3 -3 -5 -5 -4
-3 -3 -3 -3 -4 -5 -4 -5 -3 -2 -2 -3 -4 -5 -5 -5 -5 -6 -7 -6 -7 -7 -6 -7 -7 -6 -6 -5 -5 -5 -5 -6 -6 -6 -6 -5 -5 -5 -4 -3 -4 -4 -4 -4
-3 -3 -3 -3 -5 -3 -4 -4 -3 -2 -2 -3 -4 -5 -5 -5 -5 -5 -6 -6 -6 -7 -6 -7 -7 -7 -7 -6 -5 -5 -6 -6 -5 -5 -5 -5 -5 -5 -4 -4 -4 -4 -3 -3
-3 -4 -3 -3 -5 -4 -4 -4 -3 -3 -3 -3 -4 -4 -5 -4 -5 -5 -5 -6 -5 -7 -7 -7 -7 -7 -7 -4 -5 -5 -5 -5 -5 -6 -5 -5 -4 -5 -4 -4 -4 -4 -3 -3
-2 -3 -3 -3 -4 -4 -5 -4 -4 -3 -3 -4 -4 -5 -4 -4 -5 -5 -5 -5 -6 -5 -5 -6 -6 -7 -6 -5 -5 -5 -5 -6 -6 -5 -5 -7 -6 -5 -5 -5 -4 -4 -4 -3
-2 -4 -4 -4 -4 -5 -4 -4 -4 -4 -4 -4 -4 -4 -4 -4 -5 -5 -5 -5 -5 -5 -5 -5 -6 -6 -6 -6 -6 -6 -7 -6 -5 -5 -6 -5 -6 -6 -5 -5 -5 -4 -4 -3
-2 -3 -3 -3 -4 -4 -3 -3 -4 -4 -4 -3 -4 -4 -4 -4 -4 -5 -5 -5 -5 -5 -6 -6 -6 -6 -6 -6 -6 -7 -7 -7 -6 -5 -6 -7 -5 -6 -5 -5 -5 -4 -4 -3
-2 -3 -3 -4 -3 -2 -3 -3 -4 -3 -4 -3 -4 -4 -3 -3 -4 -4 -4 -5 -5 -5 -5 -5 -6 -5 -5 -6 -6 -7 -6 -6 -6 -6 -6 -6 -5 -5 -5 -5 -5 -4 -3 -3
-2 -3 -3 -4 -4 -3 -3 -3 -3 -3 -3 -3 -3 -3 -3 -3 -4 -4 -4 -5 -5 -5 -5 -5 -5 -5 -5 -5 -5 -5 -5 -5 -5 -5 -5 -6 -5 -5 -5 -5 -5 -4 -4 -4
-3 -3 -3 -4 -4 -4 -3 -3 -3 -3 -3 -3 -3 -3 -3 -3 -4 -4 -4 -4 -4 -4 -5 -4 -5 -5 -5 -5 -5 -5 -5 -5 -5 -5 -5 -5 -5 -5 -5 -5 -5 -5 -5 -5
-2 -3 -3 -4 -4 -4 -3 -3 -3 -3 -3 -3 -3 -2 -3 -3 -3 -4 -4 -4 -4 -4 -4 -4 -4 -4 -4 -5 -5 -5 -5 -5 -5 -5 -5 -5 -5 -5 -5 -5 -6 -5 -5 -5
-3 -3 -3 -4 -5 -3 -3 -3 -3 -3 -3 -3 -2 -2 -2 -3 -3 -3 -4 -4 -4 -4 -4 -4 -4 -4 -4 -4 -4 -4 -4 -5 -5 -5 -5 -5 -5 -5 -5 -5 -5 -5 -5 -4
-3 -3 -3 -4 -4 -4 -3 -2 -3 -3 -3 -2 -2 -2 -2 -2 -3 -3 -3 -4 -4 -4 -4 -4 -4 -4 -4 -4 -4 -4 -3 -4 -4 -5 -5 -5 -5 -5 -5 -5 -5 -5 -5 -6
-3 -3 -3 -4 -4 -5 -3 -3 -2 -3 -2 -2 -2 -2 -2 -2 -2 -3 -3 -3 -3 -4 -4 -4 -4 -3 -4 -4 -4 -3 -3 -4 -4 -4 -5 -5 -5 -6 -5 -5 -5 -5 -5 -5
-5 -5 -4 -4 -5 -4 -3 -3 -2 -3 -3 -3 -2 -2 -1 -1 -2 -2 -3 -3 -3 -3 -3 -3 -3 -3 -4 -3 -2 -2 -3 -3 -4 -4 -4 -5 -5 -5 -5 -5 -5 -5 -5 -5
-6 -5 -5 -4 -6 -5 -4 -4 -3 -2 -3 -3 -2 -1 -1 -1 -1 -2 -2 -2 -2 -3 -3 -3 -3 -3 -3 -2 -1 -2 -2 -3 -4 -5 -5 -5 -5 -5 -5 -5 -6 -6 -6 -6
-6 -6 -5 -5 -5 -5 -4 -4 -4 -3 -4 -4 -2 -2 -0 -1 -1 -1 -2 -2 -2 -2 -2 -3 -3 -2 -1 -0 -1 -2 -2 -3 -4 -4 -5 -5 -5 -6 -6 -6 -6 -6 -6 -6
-6 -6 -6 -6 -6 -6 -6 -5 -4 -4 -4 -4 -2 -2 -1 -1 -1 -1 -2 -2 -2 -3 -2 -3 -3 -0 -0 -1 -1 -1 -2 -3 -4 -4 -5 -5 -5 -6 -6 -6 -6 -6 -6 -6
-6 -7 -6 -6 -5 -6 -8 -5 -5 -5 -5 -4 -2 -2 -2 -2 -1 -2 -2 -2 -2 -2 -3 -3 -2 0 1 -0 -1 -2 -2 -3 -4 -4 -5 -5 -6 -6 -7 -7 -7 -7 -7 -7
-6 -7 -7 -6 -6 -7 -8 -6 -5 -4 -3 -3 -2 -2 -2 -2 -2 -2 -2 -2 -1 -2 -4 -4 -2 1 0 -0 -1 -2 -3 -3 -4 -5 -5 -5 -6 -6 -6 -7 -7 -7 -7 -7
-7 -8 -7 -7 -6 -6 -6 -6 -4 -4 -4 -2 -1 -2 -2 -3 -3 -3 -2 -2 -3 -4 -4 -2 -0 0 -0 -1 -2 -2 -3 -4 -4 -5 -5 -5 -5 -6 -6 -6 -7 -7 -7 -8
-8 -8 -7 -7 -6 -5 -4 -4 -3 -3 -2 -1 -2 -1 -3 -3 -3 -3 -2 -3 -3 -3 -4 -1 -0 -0 -1 -2 -2 -3 -4 -4 -5 -5 -5 -6 -6 -6 -7 -7 -7 -8 -9 -10
-9 -8 -7 -6 -5 -4 -4 -3 -3 -3 -3 -2 -1 -3 -3 -4 -3 -3 -2 -3 -3 -2 -1 -1 -1 -1 -2 -3 -3 -4 -4 -5 -5 -6 -6 -6 -6 -7 -7 -8 -8 -9 -9 -9
-8 -8 -7 -5 -5 -4 -4 -3 -2 -3 -3 -2 -3 -4 -4 -4 -3 -3 -2 -3 -2 -1 -1 -1 -2 -3 -3 -4 -4 -5 -5 -5 -6 -6 -6 -7 -7 -8 -8 -9 -9 -9 -9 -10
-8 -7 -6 -6 -5 -4 -3 -3 -3 -3 -3 -2 -3 -3 -3 -3 -3 -3 -3 -2 -1 -1 -2 -2 -3 -3 -4 -4 -5 -5 -5 -6 -6 -7 -7 -8 -9 -9 -9 -9 -9 -10 -11 -12
Height
2942 2947 2952 2959 2967 2973 2978 2984 2992 2995 2999 3002 3002 3004 3005 3006 3008 3009 3011 3013 3014 3014 3014 3013 3012 3013 3013 3013 3012 3009 3008 3008 3006 3004 3002 3001 2999 2997 2994 2991 2996 2996 3000 3009
2942 2944 2957 2964 2968 2975 2983 2987 2992 2995 2998 3000 3001 3003 3004 3005 3008 3009 3012 3013 3015 3016 3016 3016 3014 3014 3014 3014 3014 3013 3011 3011 3008 3008 3009 3006 3004 3002 2999 2998 2997 3003 3007 3016
2954 2957 2964 2965 2972 2980 2984 2989 2993 2995 2997 2998 3000 3002 3004 3005 3007 3009 3011 3013 3015 3016 3016 3016 3015 3015 3016 3015 3015 3014 3014 3013 3012 3013 3014 3013 3010 3006 3003 3000 3004 3011 3014 3016
2963 2966 2969 2974 2977 2984 2986 2991 2993 2995 2996 2998 3000 3002 3004 3005 3007 3009 3011 3013 3015 3016 3017 3017 3016 3016 3016 3016 3017 3017 3017 3016 3014 3014 3016 3016 3015 3013 3011 3008 3010 3013 3016 3015
2973 2972 2976 2980 2985 2988 2989 2992 2994 2995 2997 2998 3001 3002 3003 3005 3007 3009 3011 3013 3014 3015 3017 3018 3019 3017 3016 3016 3018 3018 3017 3018 3018 3017 3018 3019 3018 3017 3017 3017 3017 3016 3017 3017
2977 2979 2981 2985 2988 2990 2991 2994 2995 2997 2998 2999 3002 3003 3004 3005 3008 3010 3011 3014 3015 3016 3018 3018 3018 3018 3017 3017 3019 3018 3018 3019 3020 3021 3020 3020 3022 3022 3023 3024 3024 3024 3024 3025
2984 2986 2987 2988 2989 2991 2993 2995 2997 2998 3000 3001 3002 3002 3004 3006 3008 3010 3012 3014 3016 3019 3019 3020 3020 3020 3020 3020 3020 3020 3020 3020 3021 3022 3022 3027 3029 3027 3027 3027 3027 3028 3028 3027
2985 2986 2989 2991 2993 2993 2995 2996 2998 2999 3000 3001 3002 3002 3004 3006 3008 3010 3013 3015 3017 3018 3020 3022 3022 3023 3023 3023 3023 3022 3022 3022 3023 3023 3024 3028 3029 3030 3029 3029 3029 3029 3030 3031
2988 2989 2989 2990 2993 2998 2998 2998 3000 3000 3001 3002 3001 3002 3005 3007 3009 3011 3014 3016 3018 3020 3022 3023 3024 3024 3024 3025 3025 3024 3024 3024 3025 3025 3024 3027 3028 3027 3027 3029 3030 3030 3031 3032
2987 2990 2991 2992 2996 2998 3000 3000 3001 3001 3001 3001 3001 3002 3005 3007 3009 3012 3014 3016 3018 3021 3022 3024 3024 3025 3025 3026 3025 3025 3025 3026 3026 3026 3026 3028 3028 3027 3027 3029 3035 3030 3031 3031
2986 2990 2991 2993 2996 2998 3000 3001 3001 3002 3001 3001 3001 3002 3005 3007 3009 3012 3014 3018 3019 3020 3023 3024 3024 3024 3025 3025 3025 3025 3026 3026 3026 3027 3027 3029 3027 3027 3029 3031 3029 3029 3030 3030
2985 2989 2991 2993 2995 2998 3000 3002 3002 3001 3002 3002 3001 3002 3004 3007 3009 3012 3014 3017 3017 3020 3022 3023 3023 3023 3024 3025 3025 3025 3027 3027 3027 3028 3028 3027 3027 3027 3027 3028 3028 3029 3028 3028
2982 2986 2990 2991 2995 2999 3001 3001 3001 3001 3001 3002 3001 3002 3005 3007 3009 3012 3014 3016 3018 3020 3021 3022 3022 3023 3022 3023 3023 3024 3024 3024 3025 3026 3026 3026 3026 3026 3026 3026 3026 3026 3026 3026
2980 2984 2988 2990 2995 2998 3000 3001 3001 3001 3002 3002 3003 3003 3005 3007 3009 3011 3013 3016 3017 3019 3020 3021 3021 3021 3021 3021 3022 3022 3023 3023 3023 3024 3024 3024 3024 3025 3026 3026 3025 3024 3024 3024
2977 2981 2987 2991 2993 2997 2999 3000 3000 3000 3003 3002 3002 3004 3006 3007 3009 3011 3013 3015 3016 3017 3019 3019 3020 3020 3020 3019 3019 3018 3019 3020 3021 3021 3022 3022 3023 3023 3024 3023 3023 3023 3023 3022
2973 2977 2984 2988 2992 2995 2998 2998 3001 3001 3000 3003 3003 3004 3005 3007 3009 3010 3012 3013 3014 3016 3017 3018 3017 3018 3019 3017 3014 3015 3016 3017 3018 3019 3019 3020 3020 3020 3020 3020 3020 3019 3019 3018
2970 2972 2978 2983 2989 2992 2995 2997 2999 3000 3000 3002 3003 3003 3004 3006 3008 3009 3011 3012 3013 3014 3015 3015 3015 3016 3016 3013 3012 3012 3013 3014 3015 3016 3017 3018 3017 3017 3016 3016 3016 3015 3014 3013
2965 2968 2972 2979 2983 2989 2993 2994 2995 2997 3000 3001 3001 3000 3002 3004 3006 3008 3009 3010 3011 3012 3013 3013 3013 3013 3012 3010 3009 3010 3010 3011 3012 3013 3013 3013 3013 3013 3012 3011 3011 3010 3009 3008
2959 2962 2966 2973 2978 2984 2989 2991 2993 2995 2999 2997 2997 2998 3000 3001 3003 3006 3008 3009 3009 3010 3009 3010 3012 3008 3007 3007 3007 3007 3008 3009 3009 3010 3010 3010 3010 3009 3008 3007 3005 3005 3003 3002
2951 2958 2962 2965 2972 2979 2985 2991 2991 2990 2990 2991 2991 2994 2996 3000 3001 3002 3007 3007 3007 3006 3006 3006 3004 3001 3003 3004 3004 3004 3005 3005 3006 3006 3006 3006 3005 3005 3004 3002 3000 2998 2996 2995
2945 2949 2954 2959 2967 2975 2982 2985 2985 2984 2982 2981 2985 2990 2993 2996 2999 3001 3004 3003 3003 3002 3002 3002 2998 2995 2997 2998 3000 3001 3002 3002 3003 3002 3002 3001 3000 2999 2997 2995 2993 2991 2988 2986
2939 2944 2951 2956 2963 2967 2974 2972 2974 2971 2974 2971 2977 2985 2990 2992 2996 2998 3000 3001 3000 2997 2997 2997 2991 2991 2993 2994 2995 2997 2999 2999 2999 2999 2998 2997 2995 2993 2991 2989 2986 2982 2979 2977
2933 2939 2943 2947 2951 2952 2951 2947 2951 2954 2957 2964 2972 2978 2983 2988 2993 2995 2997 2996 2994 2994 2991 2988 2986 2987 2989 2990 2993 2995 2996 2996 2995 2995 2993 2992 2990 2987 2984 2981 2977 2973 2970 2966
2925 2929 2931 2934 2932 2928 2925 2929 2940 2948 2956 2963 2968 2973 2978 2982 2988 2991 2991 2990 2990 2986 2983 2980 2982 2983 2985 2988 2991 2992 2993 2992 2991 2990 2989 2987 2984 2980 2975 2971 2967 2962 2959 2956
2914 2917 2917 2917 2916 2918 2923 2929 2937 2944 2951 2959 2964 2970 2975 2978 2983 2983 2983 2982 2979 2976 2974 2976 2978 2980 2983 2986 2988 2988 2988 2988 2987 2985 2983 2980 2976 2972 2968 2962 2958 2952 2949 2945
2905 2904 2905 2907 2912 2915 2919 2925 2932 2938 2946 2953 2959 2964 2969 2971 2973 2972 2971 2970 2968 2969 2971 2973 2976 2979 2982 2983 2984 2984 2983 2982 2981 2979 2976 2973 2969 2964 2960 2955 2949 2945 2940 2935
2890 2893 2899 2902 2907 2916 2920 2924 2929 2935 2941 2945 2950 2954 2958 2961 2962 2962 2961 2962 2964 2966 2969 2972 2974 2977 2978 2979 2979 2979 2978 2976 2974 2972 2969 2966 2962 2958 2954 2949 2943 2938 2933 2929
Wind_Speed
13 10 27 28 34 25 31 24 14 12 11 11 10 7 8 8 10 9 6 4 5 5 5 7 6 7 6 6 7 9 10 9 10 9 10 11 16 17 17 5 4 8 5 7
9 19 17 24 11 29 19 17 13 12 13 9 9 10 10 10 10 9 5 4 5 5 6 4 6 6 6 7 10 8 8 6 4 2 5 12 14 17 16 8 8 10 4 3
14 8 14 11 22 22 20 11 8 12 13 9 11 11 11 11 11 10 7 5 7 6 6 8 5 5 3 4 6 7 5 9 8 3 6 11 10 16 17 11 12 12 10 8
17 5 13 13 22 18 15 12 5 3 5 11 12 12 10 10 9 8 9 7 8 6 4 5 6 3 4 3 5 6 5 8 7 6 9 12 12 15 16 15 12 9 13 15
10 11 14 17 16 14 15 9 3 3 3 9 13 13 12 9 8 10 9 8 6 6 5 6 5 3 2 2 4 3 6 6 10 10 8 9 12 11 13 15 13 11 12 15
14 10 4 9 25 17 14 3 2 1 3 7 12 11 11 11 9 8 10 7 4 8 6 4 4 4 4 6 6 6 4 5 6 4 7 7 8 12 8 8 11 11 10 12
8 7 11 6 24 13 10 8 4 1 3 8 10 10 10 11 12 9 12 9 6 6 9 8 9 9 10 9 7 5 6 7 6 4 1 4 3 6 7 6 7 9 10 7
13 8 10 6 25 18 9 7 6 4 2 7 11 12 12 13 13 11 11 10 9 8 7 6 5 4 4 6 8 7 7 5 3 2 4 7 5 3 4 5 6 8 8 7
8 4 4 6 26 15 8 7 6 5 1 8 10 11 12 13 13 14 12 11 11 9 7 2 2 3 1 2 2 5 6 6 3 3 2 2 3 3 1 2 3 9 4 6
4 5 1 3 22 17 11 9 8 5 3 5 9 12 12 15 16 14 13 12 12 11 7 4 2 1 1 1 1 1 2 4 4 4 1 2 2 1 1 2 3 4 3 5
1 5 4 5 23 22 13 11 9 6 2 4 8 11 13 14 16 15 14 12 12 11 7 4 3 3 4 3 3 2 1 1 1 1 2 1 2 2 2 0 3 5 4 4
4 5 8 7 21 26 16 12 9 6 2 3 7 10 14 15 15 17 13 7 8 8 8 5 4 4 5 6 3 5 3 3 2 2 2 4 3 4 5 5 6 4 3 5
7 7 9 11 24 22 18 14 11 5 2 3 7 9 13 15 15 15 14 11 8 8 8 5 6 4 6 7 8 7 7 6 5 4 6 6 5 5 4 6 4 6 4 4
7 8 8 16 22 20 17 15 12 8 6 1 6 10 13 14 15 13 13 11 9 10 7 7 6 5 5 9 8 9 10 7 7 7 8 8 7 5 5 5 7 10 10 11
13 11 10 30 24 18 19 18 13 13 4 2 6 9 13 14 14 13 12 11 10 10 10 8 8 8 7 10 13 13 12 12 11 8 8 9 8 7 7 8 9 11 12 13
15 17 15 20 34 22 21 17 16 14 7 4 6 8 12 14 14 13 12 11 10 10 10 9 11 11 9 6 9 12 10 12 13 11 11 10 11 12 13 13 13 13 13 13
18 20 22 20 40 26 21 19 20 14 9 7 5 5 13 13 13 13 12 11 10 9 10 11 10 9 10 14 14 9 8 12 13 14 15 15 15 16 17 17 17 17 16 16
24 25 28 27 40 28 23 19 17 19 13 10 6 6 13 16 15 14 13 12 11 11 11 10 11 11 11 8 7 7 8 8 10 12 14 16 18 18 19 18 18 19 20 21
29 29 33 30 46 36 25 18 17 19 22 9 10 11 9 18 17 15 13 13 12 12 14 16 11 14 10 9 8 8 8 7 9 11 10 10 12 13 15 18 20 21 23 24
33 27 34 35 48 47 32 22 16 17 24 27 20 16 15 11 21 17 12 9 11 8 12 13 19 24 19 16 13 12 10 9 9 10 10 11 13 14 16 18 21 23 24 25
38 34 37 32 42 44 31 22 15 13 14 23 33 21 15 15 16 18 12 6 6 5 9 10 8 17 13 17 19 14 11 11 11 11 13 15 17 19 21 23 25 27 29 30
42 39 38 35 37 22 19 18 17 14 19 13 26 31 22 17 17 14 12 8 6 6 8 7 7 17 13 12 14 13 11 11 12 13 15 17 20 23 26 29 31 34 34 34
44 42 38 24 25 21 21 28 28 29 14 25 23 29 31 24 19 13 7 7 8 7 8 7 12 12 11 13 13 10 10 11 13 15 18 21 24 28 31 33 36 37 37 35
47 44 34 22 18 22 27 41 39 38 36 12 29 23 26 26 21 10 7 10 6 7 8 9 9 9 12 15 10 8 10 13 15 17 21 24 27 31 34 36 38 38 38 35
37 34 21 32 25 25 26 27 30 38 36 29 17 28 24 23 12 12 11 8 8 9 7 9 9 10 14 10 8 10 13 15 18 20 24 27 30 32 34 36 36 37 37 36
31 31 24 35 39 25 24 28 27 30 31 30 26 26 12 14 10 12 13 8 9 9 8 7 11 12 8 8 10 13 15 17 20 23 25 27 28 30 31 33 34 33 33 31
36 28 45 29 33 27 23 29 28 31 32 34 25 17 13 10 12 13 15 14 10 7 10 11 9 7 8 10 12 15 17 19 21 23 24 24 24 26 28 30 30 29 28 26
Wind_Direction
319 291 157 192 212 203 189 173 190 211 201 192 199 207 192 177 159 144 132 117 97 47 39 44 67 94 97 58 31 27 29 37 49 63 51 48 44 23 27 28 35 56 74 43
28 114 169 200 201 203 164 157 198 198 197 200 196 183 178 163 162 154 158 135 119 71 49 55 101 105 98 63 50 31 38 33 8 58 53 40 36 26 22 43 73 46 76 47
84 132 188 187 201 172 151 176 206 197 206 205 189 185 178 172 163 170 175 165 134 119 63 55 96 135 119 83 45 35 59 52 57 100 59 42 33 28 29 58 72 69 75 63
38 193 168 176 150 156 163 184 232 221 237 204 184 179 186 168 159 165 151 147 135 124 98 67 50 104 121 108 77 55 61 53 72 80 84 69 52 50 51 73 63 83 73 74
9 80 175 198 156 179 175 195 293 219 233 185 190 181 182 169 166 161 153 149 161 117 117 91 67 44 70 107 109 93 59 83 94 84 82 80 66 60 53 78 89 84 80 74
24 25 12 235 173 187 177 173 191 224 227 195 189 188 176 167 165 166 159 134 147 130 118 94 65 68 89 89 95 58 49 100 107 52 96 95 34 28 65 82 108 113 97 90
341 300 286 288 169 180 175 198 193 210 224 190 187 182 174 170 169 168 162 148 146 151 115 94 88 80 73 86 76 54 86 103 66 113 136 58 80 66 98 65 125 116 110 118
339 322 279 302 185 180 184 184 201 213 246 207 196 177 183 178 177 171 165 151 149 151 130 111 73 55 52 49 51 63 80 78 78 49 73 118 61 30 116 98 112 151 138 132
330 307 275 275 188 194 210 204 216 207 246 208 193 181 181 183 180 175 174 167 162 163 151 88 59 43 352 21 41 52 53 57 97 55 60 88 75 1 77 87 70 178 187 199
336 266 147 229 183 212 223 226 223 213 233 215 192 183 191 188 184 184 181 176 172 183 190 185 202 198 220 316 23 93 99 76 99 120 101 110 163 233 165 155 139 166 197 206
11 286 214 256 220 208 220 228 224 216 225 211 188 181 189 188 188 186 187 180 198 192 197 210 232 221 212 227 213 212 188 151 147 151 119 212 156 185 186 286 256 263 262 269
179 247 246 247 207 212 220 224 214 196 233 204 187 184 186 185 186 186 186 185 195 198 197 221 221 218 213 218 217 213 222 220 202 215 211 176 203 220 224 234 257 265 236 246
184 222 261 227 208 210 214 212 195 172 194 177 193 187 187 187 189 188 191 195 198 208 216 244 243 233 227 210 227 223 233 226 230 227 215 218 233 272 267 266 238 240 254 286
188 203 248 190 201 210 208 206 192 166 151 227 191 186 187 186 188 194 189 196 192 209 228 235 246 252 237 231 238 238 234 236 235 234 241 244 249 235 247 273 250 255 268 278
177 190 216 193 199 206 206 204 195 172 156 183 185 188 190 188 192 196 197 199 203 211 222 227 253 260 261 254 251 252 247 244 246 251 243 251 263 253 260 266 272 276 278 274
190 182 205 205 205 217 209 194 202 191 165 173 182 200 198 197 197 197 200 201 205 211 228 242 250 255 249 263 267 259 247 240 251 250 253 253 256 266 272 276 277 274 277 276
209 181 191 212 201 214 206 202 199 198 191 185 201 217 208 210 210 209 211 211 215 219 231 241 248 247 248 261 267 270 249 240 244 252 260 262 265 269 276 278 275 274 272 272
219 199 190 196 195 204 201 206 203 206 210 208 221 235 209 208 210 211 212 217 223 229 233 246 251 247 251 262 258 245 248 249 243 253 262 265 268 276 285 283 274 274 273 270
220 212 193 200 204 198 203 210 211 215 213 214 220 217 225 209 211 212 218 225 236 245 245 244 249 249 238 253 262 256 249 245 241 252 265 272 276 281 285 287 285 282 280 279
209 207 200 205 203 200 199 217 221 227 220 222 219 220 223 214 208 209 212 226 227 245 248 251 246 252 248 252 254 255 260 259 261 267 272 277 284 286 287 288 289 290 289 287
204 205 203 202 204 201 191 209 218 219 218 224 221 220 224 213 212 209 207 226 230 239 240 224 242 258 253 242 243 243 249 258 266 274 282 288 290 291 292 292 292 291 291 290
205 209 205 199 193 184 188 211 212 218 215 217 212 217 219 216 212 204 214 227 232 235 227 219 241 260 245 245 228 225 241 258 270 280 285 288 292 294 295 295 295 294 294 292
203 212 208 193 186 189 200 198 198 202 199 204 207 207 210 210 210 205 203 223 229 232 224 231 240 251 246 224 204 216 244 264 276 283 288 291 294 295 295 295 297 298 298 298
205 201 192 194 194 210 208 211 209 207 208 200 207 209 203 203 198 197 211 220 220 233 226 233 244 229 211 194 203 239 260 270 279 286 290 293 295 296 299 301 302 302 302 303
203 201 205 207 205 209 212 205 208 211 210 208 206 205 200 194 190 197 207 202 215 224 224 234 223 207 188 198 242 261 270 279 286 292 295 297 299 301 303 305 306 306 307 305
204 203 207 211 213 206 195 195 201 198 196 196 186 185 187 187 202 201 202 204 206 218 216 194 171 170 207 242 260 271 280 288 294 296 298 302 305 310 314 316 317 317 313 309
207 209 210 213 209 202 199 192 187 182 194 186 174 177 183 189 204 207 209 211 207 206 182 184 196 227 247 260 270 280 289 293 296 298 302 308 318 326 331 333 329 323 320 320